Regional Weather Roundup
Issued by NWS

Home | Current Version | Previous Version | Text Only | Print | Product List | Glossary On
Versions: 1 2 3 4 5 6 7 8 9 10 11 12 13 14 15 16 17 18 19 20 21 22 23 24 25 26 27 28 29 30 31 32 33 34 35 36 37 38 39 40 41 42 43 44 45 46 47 48 49 50
000
ASUS45 KABQ 200110
RWRNM
WEATHER ROUNDUP FOR NEW MEXICO
NATIONAL WEATHER SERVICE ALBUQUERQUE NM
700 PM MDT SAT APR 19 2014

NOTE: "FAIR" MEANS FEW OR NO CLOUDS BELOW 12,000 FEET AGL WITH NO
       SIGNIFICANT WEATHER OR OBSTRUCTIONS TO VISION.

      THIS PRODUCT IS RELEASED AS TWO VERSIONS.  ONE VERSION NEAR
      THE TOP OF THE HOUR CONTAINING PRELIMINARY DATA FROM ALBUQUERQUE
      AND OTHER STATIONS.  A FINAL VERSION WITH ADDITIONAL DATA IS
      ISSUED ABOUT 10 MINUTES AFTER THE HOUR.

NMZ501-503-504-510>518-200200-
NORTHWEST PLATEAU/NORTHCENTRAL MOUNTAINS

CITY           SKY/WX    TMP DP  RH WIND       PRES   REMARKS
FARMINGTON     CLEAR     66  27  23 CALM      30.02S
LOS ALAMOS     CLOUDY    48  42  80 CALM      30.14F
SANTA FE       CLOUDY    53  42  66 SW3       30.10F
TAOS           CLOUDY    52  36  54 SW12      30.13S
ANGEL FIRE     FAIR      46  39  75 S6        30.17S

$$
NMZ402-403-502-505>509-200200-
WESTCENTRAL MOUNTAINS/SOUTHWEST MOUNTAINS

CITY           SKY/WX    TMP DP  RH WIND       PRES   REMARKS
GALLUP         LGT RAIN  54  39  57 SW17      30.15R
GRANTS         CLOUDY    54  35  49 SW6       30.14S
SILVER CITY    CLOUDY    55  39  54 NW15      30.13R

$$
NMZ407-409-411-412-200200-
SOUTHERN DESERTS

CITY           SKY/WX    TMP DP  RH WIND       PRES   REMARKS
LORDSBURG      FAIR      57  45  62 CALM      30.07F
DEMING         CLOUDY    61  45  55 CALM      30.08R
LAS CRUCES     DRIZZLE   60  45  56 NW9       30.08F
HOLLOMAN AFB   LGT RAIN  55  52  88 E15       30.07R FOG
ALAMOGORDO     LGT RAIN  54  50  87 SE23G39   30.12R
T OR C         RAIN      53  48  83 S17G26    30.07R

$$
NMZ519>523-200200-
CENTRAL VALLEYS/CENTRAL HIGHLANDS

CITY           SKY/WX    TMP DP  RH WIND       PRES   REMARKS
ALBUQUERQUE    CLOUDY    59  41  51 CALM      30.09R
MORIARTY ARPT  CLOUDY    52  43  70 NW3       30.12R
CLINES CORNERS CLOUDY    51  42  71 E3        30.11S
BELEN          CLOUDY    60  42  51 NE5       30.08R
SOCORRO        CLOUDY    62  45  53 S6        30.07R

$$
NMZ524>526-539-540-200200-
SOUTHCENTRAL MOUNTAINS

CITY           SKY/WX    TMP DP  RH WIND       PRES   REMARKS
RUIDOSO        CLOUDY    50  45  81 SE14      30.16S

$$
NMZ527>531-200200-
NORTHEAST HIGHLANDS/NORTHEAST PLAINS

CITY           SKY/WX    TMP DP  RH WIND       PRES   REMARKS
LAS VEGAS      CLOUDY    48  41  76 S7        30.10F
RATON          CLOUDY    54  44  69 S13       30.06S
CLAYTON        CLOUDY    60  43  53 SW12      30.01F

$$
NMZ532>537-200200-
EASTCENTRAL PLAINS

CITY           SKY/WX    TMP DP  RH WIND       PRES   REMARKS
TUCUMCARI      CLOUDY    61  52  72 S5        30.01F
CANNON AFB     MOCLDY    57  53  86 S3        30.06R
CLOVIS AIRPORT MOCLDY    57  52  82 S5        30.09R

$$
NMZ028-029-538-200200-
SOUTHEAST PLAINS

CITY           SKY/WX    TMP DP  RH WIND       PRES   REMARKS
ROSWELL        CLOUDY    64  53  67 S9        30.06R
ARTESIA        CLOUDY    63  55  77 S10       30.08R
CARLSBAD       CLOUDY    64  56  75 W10       30.08R
HOBBS          LGT RAIN  59  55  88 NE5       30.09R


$$



USA.gov is the U.S. government's official web portal to all federal, state and local government web resources and services.